Dewpoint
67 69 71 70 69 66 65 64 64 65 65 65 67 68 67 66 65 66 66 65 66 65 65 66 67 68 67 67 68 68 67 64 65
66 69 70 69 68 66 66 65 65 65 65 64 66 67 65 62 63 64 64 63 64 64 64 63 63 64 67 67 67 67 67 67 67
67 68 70 69 68 67 66 65 64 64 64 64 65 66 64 62 63 64 64 66 64 63 63 62 62 62 63 64 64 64 65 65 65
68 69 70 69 69 68 67 66 64 64 63 63 64 65 64 62 64 64 64 66 63 62 62 62 61 61 61 61 61 62 62 61 61
68 69 70 70 69 69 68 67 65 64 64 64 64 64 64 61 63 64 64 65 63 62 61 61 60 59 59 59 59 60 60 60 60
65 67 69 69 69 68 67 66 67 67 66 65 63 61 60 60 63 64 67 64 63 61 60 59 58 58 58 57 57 58 58 57 58
65 66 68 69 68 68 67 66 67 65 61 60 62 59 58 59 61 63 67 64 63 61 60 58 58 57 57 56 56 56 57 56 57
62 64 65 65 65 65 66 65 63 60 59 59 58 58 57 59 61 64 67 64 63 61 59 57 57 57 56 56 55 55 55 56 56
60 61 62 63 63 62 62 62 62 60 59 57 56 56 57 58 60 62 65 66 63 62 59 57 57 57 56 55 54 54 55 55 54
60 60 61 61 61 61 60 61 61 59 59 59 58 57 56 55 58 60 63 65 65 62 60 59 57 57 57 55 54 54 54 54 54
59 60 60 60 60 60 60 60 60 59 58 58 58 57 56 54 57 59 61 64 65 63 61 60 58 57 57 56 54 54 54 54 53
58 59 59 60 60 60 60 59 58 58 58 57 57 55 54 51 54 56 59 61 63 64 61 60 59 58 57 56 55 54 53 53 51
57 58 58 59 59 60 59 58 58 57 57 57 57 54 51 49 50 52 57 59 60 62 63 62 59 58 58 57 56 54 52 51 50
56 56 57 57 58 58 58 57 57 56 56 56 56 54 51 49 46 48 52 57 59 58 60 62 61 60 58 57 57 55 52 50 48
57 57 57 56 57 57 56 56 56 56 56 55 54 53 50 48 47 46 49 54 57 57 56 57 58 60 60 57 57 56 54 50 48
58 58 58 59 57 56 57 55 55 55 54 52 51 49 48 47 45 46 46 53 55 55 55 54 55 54 60 59 56 56 54 50 46
58 58 58 58 59 59 58 57 56 55 54 53 50 50 51 47 46 44 45 45 53 54 54 53 53 51 52 54 58 56 54 52 48
60 59 59 59 59 59 59 58 57 57 54 52 55 48 48 46 46 43 43 44 44 48 51 51 50 46 48 51 52 52 50 49 48
63 61 59 59 59 59 58 59 59 58 58 54 54 53 50 48 47 44 45 44 43 44 45 47 46 46 48 50 51 52 53 53 52
63 63 61 61 59 58 58 58 59 59 59 57 55 54 51 48 48 50 49 46 45 46 46 47 47 47 48 48 50 51 52 52 51
Lifted_Index
2 1 1 1 3 4 4 5 5 4 4 3 3 2 2 2 2 1 1 1 1 1 1 1 0 -0 -1 -1 -1 -1 -1 -1 -1
2 1 1 1 2 3 4 5 5 4 4 4 3 3 3 3 2 2 1 1 1 2 2 2 1 1 0 -0 -0 -0 -0 -0 -1
2 1 1 1 2 3 3 4 4 4 4 4 4 4 4 3 3 2 2 2 2 2 3 3 3 3 2 2 1 1 1 1 1
2 1 1 1 2 2 2 3 3 4 4 4 4 4 4 4 3 2 2 2 2 3 3 3 4 4 4 3 3 3 3 3 3
2 1 0 1 1 1 2 2 3 3 4 4 5 4 4 4 3 2 2 2 3 3 4 4 4 5 5 5 5 4 4 4 4
2 1 1 1 1 2 2 2 3 3 4 5 5 4 4 3 3 2 2 2 3 3 4 5 5 5 6 6 6 5 5 5 5
2 2 1 1 1 2 2 2 3 4 5 5 5 4 4 3 3 2 1 2 3 3 4 5 5 6 6 6 6 6 6 6 6
2 2 2 2 2 2 2 2 3 4 6 6 5 4 4 4 3 2 1 1 2 3 4 5 5 6 6 6 6 7 7 7 7
3 3 3 2 2 3 3 3 3 5 6 6 6 5 4 3 3 2 1 1 2 3 4 5 5 5 6 6 7 7 7 7 7
4 4 3 3 3 3 3 3 3 4 5 5 5 4 4 3 3 2 2 1 1 2 3 4 5 5 5 6 7 7 7 7 7
4 4 4 3 3 3 3 3 3 4 5 5 4 4 4 3 3 3 2 1 1 1 2 3 4 4 5 6 6 7 7 7 8
3 3 3 3 3 3 3 3 3 4 4 4 3 3 3 3 3 3 2 1 1 1 2 3 3 4 4 5 6 7 7 8 8
2 2 2 3 3 3 3 3 3 3 3 3 3 2 2 3 3 3 2 2 1 1 2 2 3 3 4 4 5 6 7 8 9
1 1 1 2 2 2 2 2 2 2 2 2 2 2 2 2 2 2 2 2 2 2 2 2 2 3 3 4 4 5 7 8 9
0 0 1 1 1 2 2 2 1 1 1 1 1 1 1 1 1 1 1 2 2 2 2 2 2 3 3 4 4 5 6 8 9
-0 -0 0 1 1 1 1 1 1 1 0 1 1 1 1 1 1 1 1 1 1 2 2 2 2 3 3 4 4 4 6 7 9
-1 -1 -0 -0 0 0 0 0 1 0 0 0 0 1 1 1 1 1 1 1 1 1 2 2 2 2 3 4 5 5 6 7 8
-2 -1 -1 -1 -1 -1 -1 -0 -0 0 0 -0 0 1 1 1 1 1 1 1 1 1 2 2 2 3 3 4 6 6 7 7 8
-2 -2 -2 -2 -1 -1 -1 -1 -1 -0 -0 -0 0 0 1 1 1 1 1 1 0 1 1 1 2 3 4 5 6 7 7 8 8
-2 -2 -2 -2 -2 -1 -1 -1 -1 -0 0 0 0 0 1 1 1 1 1 0 0 0 0 1 2 3 4 5 6 6 7 8 9